Location: Larkspur
(54.4391°N, 113.7691°W)
Time: 22:41:08
(UTC+00:00)

METEOR M2 - Pass Details

Date: 09 December 2023
Orbit: 819 x 826 km, 98.4° (Epoch: 04 March)

Event Time Altitude Azimuth Distance (km) Brightness Sun altitude
Rises 13:42:00 0° 15° (NNE) 3,374 ? -16.3°
Reaches altitude 10° 13:44:22 10° 17° (NNE) 2,436 ? -16.0°
Maximum altitude 13:49:47 82° 105° (ESE) 837 ? -15.3°
Drops below altitude 10° 13:55:09 10° 194° (SSW) 2,414 ? -14.5°
Sets 13:57:29 0° 195° (SSW) 3,342 ? -14.2°
